Volver al catálogo

STARLINK-34117

ActivoComunicacionesVLEO
NORAD 64040·PAYLOAD·🇺🇸 United States

Lanzado May 16, 2025 desde Vandenberg Space Force Base

Loading…

Próximos Pases (próximas 24 horas)

TLE

ActualizadoSource: CelesTrak SupGP

Época: Sep 15, 2026, 02:54 UTC

1 64040C 25102U   26258.12131944  .00042706  00000+0  14885-2 0  2586
2 64040  70.0010 355.0647 0003133 265.5690  11.2500 15.29493975    11

Sigue STARLINK-34117 en tiempo real con AllMySat

Download on the App Store